Regional Weather Roundup
Issued by NWS Newport/Morehead, NC

Current Version | Previous Version | Graphics & Text | Print | Product List | Glossary Off
Versions: 1 2 3 4 5 6 7 8 9 10 11 12 13 14 15 16 17 18 19 20 21 22 23 24 25 26 27 28 29 30 31 32 33 34 35 36 37 38 39 40 41 42 43 44 45 46 47 48 49 50
000 ASUS42 KMHX 291310 RWRMHX WEATHER ROUNDUP FOR EASTERN NORTH CAROLINA NATIONAL WEATHER SERVICE NEWPORT/MOREHEAD CITY NC 800 AM EST THU JAN 29 2015 NOTE: "FAIR" INDICATES FEW OR NO CLOUDS BELOW 12,000 FEET WITH NO SIGNIFICANT WEATHER AND/OR OBSTRUCTIONS TO VISIBILITY NCZ015>017-031-032-045>047-102-103-291400- NORTH COAST CITY SKY/WX TMP DP RH WIND PRES REMARKS EDENTON CLEAR 23 18 82 CALM 30.37R ELIZABETH CITY CLEAR 25 18 74 W3 30.37R KITTY HAWK SUNNY 32 24 74 NW5 30.34R MANTEO CLEAR 34 21 60 N5 30.36R $$ NCZ045>047-081-094-103-104-291400- CENTRAL COAST CITY SKY/WX TMP DP RH WIND PRES REMARKS FRISCO CLEAR 35 22 58 N8 30.34R SWANQUARTER NOT AVBL $$ NCZ095-097-098-100-101-291400- SOUTHERN COAST CITY SKY/WX TMP DP RH WIND PRES REMARKS BEAUFORT CLEAR 32 22 66 N7 30.38R CEDAR ISLAND NOT AVBL JACKSONVILLE NOT AVBL PINEY ISLAND N/A N/A N/A N/A MISG 30.37R WILMINGTON PTCLDY 28 20 71 CALM 30.38R $$ NCZ011>013-027>030-043-044-078>080-089-090>093-098-291400- COASTAL PLAIN CITY SKY/WX TMP DP RH WIND PRES REMARKS AHOSKIE PTCLDY 20 17 85 CALM 30.37S CLINTON CLEAR 24 23 96 CALM 30.39R ELIZABETHTOWN PTCLDY 25 22 87 CALM 30.37S GOLDSBORO PTCLDY 24 24 97 CALM 30.37R GREENVILLE PTCLDY 25 21 86 CALM 30.38R HAVELOCK CLEAR 28 22 78 VRB3 30.38R KENANSVILLE PTCLDY 22 21 96 CALM 30.39R KINSTON PTCLDY 23 19 86 CALM 30.38R NEW BERN CLEAR 28 22 78 CALM 30.39R RICHLANDS PTCLDY 25 18 74 CALM 30.39R ROCKY MOUNT PTCLDY 23 20 88 S3 30.37R WASHINGTON CLEAR 24 18 80 CALM 30.37S WHITEVILLE CLEAR 26 23 86 CALM 30.37S $$ AMZ130-135-150-152-154-156-158-170-250-252-270-ANZ085-086-088-633-658-670-291400- MARINE OBSERVATIONS STATION/POSITION TIME TEMP WIND PRES WAVE SWELL AIR SEA DIR/SP/G HT/PER HT/PER (UTC) (F) (DEG/KT/KT) (MB) (FT/S) (FT/S) CHESAPEAKE LIGHT 1200 33 10/ 11/ 13 1027.6 64 E VA BEACH 1300 38 48 360/ 12/ 16 1026.3 5/12 5/12 DUCK 1300 31 41 310/ 8/ 10 1026.9 2 E DUCK 1300 42 N/A 4/ 7 2/11 10 NE DUCK 1300 44 N/A 5/12 2/12 OREGON INLET 1300 33 41 320/ 7/ 9 1027.6 13E OREGON INLT 1300 44 N/A 5/11 3/11 HATTERAS CG 1300 36 44 350/ 10/ 13 1027.7 DIAMOND BUOY 1300 40 71 350/ 14/ 17 1026.9 7/10 7/10 17 S OCRACOKE NOT AVBL CAPE LOOKOUT 1200 34 340/ 7/ 9 1027.7 BEAUFORT LAB 1300 34 46 340/ 5/ 8 1027.5 27 SE WRIGHTSVLE NOT AVBL 5 SE WRIGHTSVLE 1200 41 52 30/ 10/ 12 1027.8 225 S CAPE HAT 1218 55 72 350/ 12/ 17 1025.6 9/10 8/10 41 SE CHARLESTON 1300 52 67 50/ 6/ 8 1027.8 4/ 6 3/ 6 $$

USA.gov is the U.S. government's official web portal to all federal, state and local government web resources and services.